period_start,C,m1,H,J0,J1,J2,J3,J4,J5,JA,JB,JC,JD,JJ,JK,JN,#
2017-05-25 00:03:05,0.00,0.68,0.00,25.07,28.25,30.96,14.06,47.67,997.98,2026.99,3167.02,2908.00,3330.94,600.03,581.13,34.10,0000 0000 0000 0000 000000
2017-05-25 00:08:07,0.02,0.68,0.00,25.08,28.25,30.96,14.08,47.82,998.02,2026.99,3166.42,2907.96,3330.22,599.57,580.62,34.15,0000 0000 0000 0000 000000
2017-05-25 00:13:08,0.01,0.68,0.00,25.08,28.25,30.95,14.11,47.83,998.05,2026.99,3166.01,2907.55,3330.01,599.98,581.07,34.20,0000 0000 0000 0000 000000
2017-05-25 00:18:10,0.02,0.68,0.00,25.10,28.25,30.95,14.15,47.86,998.05,2026.99,3165.67,2907.04,3329.89,599.86,580.90,34.25,0000 0000 0000 0000 000000
2017-05-25 00:23:11,0.02,0.68,0.00,25.10,28.25,30.98,14.12,47.62,998.05,2026.99,3165.03,2906.99,3329.15,600.09,581.15,34.30,0000 0000 0000 0000 000000
2017-05-25 00:28:12,0.00,0.68,0.00,25.10,28.25,30.96,14.06,47.64,998.05,2026.99,3164.85,2906.94,3329.00,599.58,580.60,34.35,0000 0000 0000 0000 000000
2017-05-25 00:33:13,0.04,0.68,0.00,25.12,28.25,30.97,14.08,47.65,997.98,2026.99,3164.10,2906.36,3328.86,600.31,581.22,34.40,0000 0000 0000 0000 000000
2017-05-25 00:38:14,0.02,0.69,0.00,25.12,28.25,30.99,14.14,47.63,997.82,2026.99,3163.68,2906.01,3328.17,600.24,581.11,34.45,0000 0000 0000 0000 000000
2017-05-25 00:43:16,0.05,0.69,0.00,25.12,28.25,31.02,14.05,47.56,997.99,2026.99,3162.55,2905.50,3327.60,599.95,580.86,34.50,0000 0000 0000 0000 000000
2017-05-25 00:48:17,0.03,0.69,0.00,25.13,28.25,30.98,14.03,47.68,998.06,2026.99,3161.36,2904.98,3326.97,600.01,580.86,34.55,0000 0000 0000 0000 000000
2017-05-25 00:53:18,0.04,0.69,0.00,25.14,28.26,30.98,14.12,47.66,998.05,2026.99,3160.71,2904.31,3326.26,599.98,580.85,34.60,0000 0000 0000 0000 000000
2017-05-25 00:58:20,0.01,0.69,0.00,25.16,28.27,30.97,14.10,47.67,998.04,2026.99,3160.02,2904.01,3326.00,600.00,580.85,34.65,0000 0000 0000 0000 000000
2017-05-25 01:03:21,0.02,0.69,0.00,25.17,28.27,30.98,14.09,47.68,998.04,2026.99,3159.65,2903.96,3325.58,599.63,580.47,34.70,0000 0000 0000 0000 000000
2017-05-25 01:08:22,0.02,0.70,0.00,25.17,28.27,31.00,14.08,47.65,998.05,2026.99,3159.03,2903.70,3325.05,599.77,580.80,34.75,0000 0000 0000 0000 000000
2017-05-25 01:13:23,0.02,0.70,0.00,25.17,28.27,30.99,14.08,47.71,998.02,2026.98,3158.71,2903.06,3324.97,600.03,580.87,34.80,0000 0000 0000 0000 000000
2017-05-25 01:18:24,0.02,0.70,0.00,25.20,28.27,31.00,14.07,47.54,998.05,2026.99,3158.03,2902.97,3324.29,600.07,580.90,34.86,0000 0000 0000 0000 000000
2017-05-25 01:23:26,0.02,0.70,0.00,25.21,28.29,31.02,14.16,47.63,998.02,2026.97,3157.47,2902.62,3324.00,600.03,580.84,34.91,0000 0000 0000 0000 000000
2017-05-25 01:28:27,0.03,0.70,0.00,25.23,28.30,31.02,14.11,47.73,997.99,2026.97,3156.83,2902.03,3323.47,599.94,580.70,34.96,0000 0000 0000 0000 000000
2017-05-25 01:33:29,0.09,0.70,0.00,25.22,28.30,31.02,14.10,47.69,997.80,2026.98,3154.98,2901.13,3322.24,599.65,580.30,35.01,0000 0000 0000 0000 000000
2017-05-25 01:38:30,0.35,0.72,0.00,25.24,28.30,31.02,14.10,47.63,997.62,2026.97,3148.43,2897.05,3317.67,599.92,580.42,35.06,0000 0000 0000 0000 000000
2017-05-25 01:43:31,0.40,0.74,0.00,25.25,28.31,31.03,14.08,47.56,997.86,2026.95,3139.84,2891.66,3311.70,599.68,580.34,35.11,0000 0000 0000 0000 000000
2017-05-25 01:48:32,0.21,0.75,0.00,25.27,28.32,31.04,14.08,47.71,998.00,2026.96,3134.26,2888.01,3307.63,599.65,580.27,35.16,0000 0000 0000 0000 000000
2017-05-25 01:53:34,0.05,0.76,0.00,25.29,28.32,31.08,14.13,47.48,997.93,2026.92,3132.55,2886.95,3306.19,600.22,580.80,35.21,0000 0000 0000 0000 000000
2017-05-25 01:58:35,0.05,0.76,0.00,25.30,28.33,31.05,14.07,47.55,997.94,2026.94,3131.36,2886.11,3305.49,599.76,580.42,35.26,0000 0000 0000 0000 000000
2017-05-25 02:03:37,0.00,0.76,0.00,25.31,28.35,31.06,14.03,47.53,998.05,2026.86,3130.86,2885.96,3305.01,599.64,580.29,35.31,0000 0000 0000 0000 000000
2017-05-25 02:08:38,0.03,0.76,0.00,25.34,28.35,31.08,14.08,47.59,998.03,2026.62,3129.90,2885.23,3304.43,599.94,580.53,35.36,0000 0000 0000 0000 000000
2017-05-25 02:13:39,0.01,0.76,0.00,25.36,28.36,31.09,14.12,47.75,998.02,2026.40,3128.85,2884.80,3303.73,600.14,580.69,35.41,0000 0000 0000 0000 000000
2017-05-25 02:18:40,0.08,0.76,0.00,25.38,28.37,31.10,14.09,47.75,998.05,2026.25,3127.28,2883.86,3302.65,599.98,580.53,35.46,0000 0000 0000 0000 000000
2017-05-25 02:23:41,0.03,0.77,0.00,25.40,28.38,31.11,14.10,47.69,998.06,2026.17,3125.50,2883.03,3301.76,599.94,580.51,35.51,0000 0000 0000 0000 000000
2017-05-25 02:28:42,0.02,0.77,0.00,25.40,28.40,31.14,14.08,47.67,998.06,2026.11,3124.98,2882.83,3301.05,600.13,580.49,35.56,0000 0000 0000 0000 000000
2017-05-25 02:33:44,0.03,0.77,0.00,25.43,28.40,31.13,14.10,47.58,998.06,2026.06,3124.24,2882.14,3300.93,600.31,580.68,35.61,0000 0000 0000 0000 000000
2017-05-25 02:38:46,0.01,0.77,0.00,25.46,28.42,31.16,14.07,47.58,998.07,2026.02,3123.93,2882.00,3300.18,600.03,580.48,35.66,0000 0000 0000 0000 000000
2017-05-25 02:43:47,0.02,0.77,0.00,25.47,28.42,31.16,14.05,47.71,998.08,2026.02,3123.12,2881.77,3299.99,600.03,580.24,35.71,0000 0000 0000 0000 000000
2017-05-25 02:48:48,0.04,0.78,0.00,25.48,28.45,31.19,14.01,47.64,998.07,2026.01,3122.47,2881.05,3299.29,599.56,579.94,35.77,0000 0000 0000 0000 000000
2017-05-25 02:53:49,0.00,0.78,0.00,25.50,28.45,31.19,14.10,47.75,998.08,2026.00,3121.91,2880.94,3298.95,600.23,580.49,35.82,0000 0000 0000 0000 000000
2017-05-25 02:58:51,0.05,0.78,0.00,25.52,28.47,31.19,14.02,47.63,998.38,2026.00,3121.11,2880.28,3298.23,599.48,580.12,35.87,0000 0000 0000 0000 000000
2017-05-25 03:03:52,0.00,0.78,0.00,25.53,28.48,31.22,14.08,47.73,998.55,2026.00,3120.87,2880.00,3298.00,599.87,580.35,35.92,0000 0000 0000 0000 000000
2017-05-25 03:08:53,0.05,0.78,0.00,25.56,28.50,31.24,13.99,47.60,998.54,2026.00,3119.83,2879.65,3297.28,599.59,580.03,35.97,0000 0000 0000 0000 000000
2017-05-25 03:13:54,0.04,0.78,0.00,25.59,28.51,31.25,14.07,47.77,998.54,2025.99,3118.67,2879.02,3296.61,599.80,580.23,36.02,0000 0000 0000 0000 000000
2017-05-25 03:18:56,0.01,0.79,0.00,25.62,28.52,31.27,14.10,47.73,998.54,2025.99,3117.97,2878.90,3296.01,599.92,580.28,36.07,0000 0000 0000 0000 000000
2017-05-25 03:23:57,0.05,0.79,0.00,25.62,28.55,31.29,14.07,47.76,998.55,2025.97,3117.15,2878.12,3295.60,599.82,580.12,36.12,0000 0000 0000 0000 000000
2017-05-25 03:28:58,0.05,0.79,0.00,25.65,28.56,31.32,14.10,47.62,998.55,2025.96,3116.07,2877.62,3294.65,600.04,580.37,36.17,0000 0000 0000 0000 000000
2017-05-25 03:33:59,0.10,0.79,0.00,25.66,28.57,31.32,14.05,47.57,998.55,2025.94,3113.99,2876.46,3293.29,599.89,580.12,36.22,0000 0000 0000 0000 000000
2017-05-25 03:39:01,0.26,0.80,0.00,25.67,28.60,31.34,14.06,47.73,998.55,2025.85,3107.97,2873.64,3290.06,600.03,580.19,36.27,0000 0000 0000 0000 000000
2017-05-25 03:44:02,0.21,0.82,0.00,25.67,28.61,31.35,14.09,47.63,998.55,2025.65,3101.39,2870.73,3286.70,599.81,580.02,36.32,0000 0000 0000 0000 000000
2017-05-25 03:49:03,0.05,0.82,0.00,25.70,28.62,31.40,14.12,47.71,998.55,2025.15,3098.13,2869.01,3284.75,600.16,580.34,36.37,0000 0000 0000 0000 000000
2017-05-25 03:54:04,0.07,0.83,0.00,25.72,28.64,31.39,14.06,47.59,998.55,2025.07,3096.41,2867.92,3283.46,600.07,580.12,36.42,0000 0000 0000 0000 000000
2017-05-25 03:59:05,0.05,0.83,0.00,25.73,28.65,31.39,14.12,47.70,998.55,2025.03,3095.10,2867.09,3282.55,600.11,580.16,36.47,0000 0000 0000 0000 000000
2017-05-25 04:04:07,0.04,0.83,0.00,25.74,28.67,31.42,14.10,47.67,998.55,2025.02,3094.07,2866.59,3281.86,600.03,579.98,36.52,0000 0000 0000 0000 000000
2017-05-25 04:09:08,0.04,0.83,0.00,25.76,28.69,31.45,14.10,47.58,998.55,2025.02,3093.03,2865.93,3281.02,599.87,579.92,36.57,0000 0000 0000 0000 000000
2017-05-25 04:14:09,0.06,0.84,0.00,25.78,28.70,31.42,14.08,47.68,998.55,2025.01,3091.86,2865.09,3280.09,600.10,580.15,36.62,0000 0000 0000 0000 000000
2017-05-25 04:19:10,0.05,0.84,0.00,25.80,28.72,31.45,14.01,47.63,998.55,2025.00,3090.90,2864.42,3279.20,599.91,579.92,36.68,0000 0000 0000 0000 000000
2017-05-25 04:24:12,0.03,0.84,0.00,25.81,28.74,31.49,14.09,47.72,998.55,2025.00,3089.92,2863.93,3278.43,599.98,579.83,36.73,0000 0000 0000 0000 000000
2017-05-25 04:29:13,0.06,0.84,0.00,25.82,28.75,31.49,14.06,47.73,998.55,2024.99,3088.62,2863.06,3277.58,600.04,579.86,36.78,0000 0000 0000 0000 000000
2017-05-25 04:34:14,0.05,0.85,0.00,25.83,28.77,31.50,14.00,47.63,998.56,2024.98,3087.40,2862.18,3276.74,600.00,579.91,36.83,0000 0000 0000 0000 000000
2017-05-25 04:39:15,0.04,0.85,0.00,25.86,28.78,31.53,14.16,47.67,998.58,2024.95,3086.34,2861.60,3275.91,600.28,580.10,36.88,0000 0000 0000 0000 000000
2017-05-25 04:44:16,0.05,0.85,0.00,25.88,28.80,31.55,14.06,47.69,998.62,2024.86,3085.09,2860.73,3274.89,599.86,579.76,36.93,0000 0000 0000 0000 000000
2017-05-25 04:49:18,0.07,0.86,0.00,25.90,28.82,31.56,14.10,47.69,998.74,2024.78,3083.54,2859.70,3273.67,599.92,579.81,36.98,0000 0000 0000 0000 000000
2017-05-25 04:54:19,0.06,0.86,0.00,25.90,28.83,31.57,14.02,47.71,998.81,2024.57,3081.78,2858.56,3272.43,599.67,579.63,37.03,0000 0000 0000 0000 000000
2017-05-25 04:59:20,0.03,0.86,0.00,25.92,28.85,31.60,14.04,47.52,998.93,2024.20,3080.15,2857.57,3271.20,600.06,580.02,37.08,0000 0000 0000 0000 000000
2017-05-25 05:04:21,0.05,0.86,0.00,25.91,28.87,31.62,14.13,47.65,999.00,2024.05,3078.75,2856.67,3270.08,599.96,579.98,37.13,0000 0000 0000 0000 000000
2017-05-25 05:09:23,0.08,0.87,0.00,25.93,28.87,31.63,14.03,47.58,999.03,2024.02,3077.07,2855.59,3268.80,599.98,580.00,37.18,0000 0000 0000 0000 000000
2017-05-25 05:14:24,0.09,0.87,0.00,25.95,28.90,31.67,14.06,47.75,999.04,2024.00,3075.10,2854.19,3267.27,600.13,580.08,37.23,0000 0000 0000 0000 000000
2017-05-25 05:19:25,0.12,0.88,0.00,25.95,28.91,31.67,14.02,47.61,999.04,2024.00,3072.72,2852.68,3265.51,600.15,580.06,37.28,0000 0000 0000 0000 000000
2017-05-25 05:24:26,0.12,0.88,0.00,25.96,28.92,31.69,14.06,47.61,999.04,2024.00,3070.33,2850.98,3263.62,599.94,579.88,37.33,0000 0000 0000 0000 000000
2017-05-25 05:29:28,0.10,0.89,0.00,25.96,28.94,31.73,14.11,47.69,999.06,2024.00,3068.01,2849.49,3262.07,600.05,579.94,37.38,0000 0000 0000 0000 000000
2017-05-25 05:34:29,0.11,0.90,0.00,25.97,28.95,31.71,14.02,47.64,999.08,2024.00,3065.46,2847.91,3260.18,599.80,579.75,37.43,0000 0000 0000 0000 000000
2017-05-25 05:39:30,0.10,0.90,0.00,25.98,28.97,31.70,14.06,47.68,999.11,2024.00,3063.46,2846.48,3258.63,599.99,579.93,37.48,0000 0000 0000 0000 000000
2017-05-25 05:44:31,0.07,0.91,0.00,25.98,28.97,31.71,14.06,47.70,999.12,2023.99,3061.73,2845.47,3257.43,599.84,579.85,37.53,0000 0000 0000 0000 000000
2017-05-25 05:49:32,0.07,0.91,0.00,25.98,29.00,31.71,14.08,47.73,999.35,2023.97,3060.19,2844.36,3256.17,599.98,579.92,37.58,0000 0000 0000 0000 000000
2017-05-25 05:54:34,0.02,0.91,0.00,25.99,29.00,31.74,14.02,47.67,999.50,2023.95,3059.22,2843.99,3255.64,599.78,579.92,37.64,0000 0000 0000 0000 000000
2017-05-25 05:59:35,0.04,0.91,0.00,26.00,29.02,31.76,14.12,47.71,999.51,2023.92,3058.58,2843.29,3254.92,599.85,579.96,37.69,0000 0000 0000 0000 000000
2017-05-25 06:04:36,0.06,0.92,0.00,26.02,29.02,31.78,14.19,47.67,999.53,2023.83,3057.29,2842.65,3253.99,600.33,580.44,37.74,0000 0000 0000 0000 000000
2017-05-25 06:09:37,0.08,0.92,0.00,26.02,29.03,31.78,14.10,47.72,999.53,2023.60,3055.21,2841.27,3252.52,600.09,580.22,37.79,0000 0000 0000 0000 000000
2017-05-25 06:14:39,0.07,0.92,0.00,26.04,29.05,31.82,14.11,47.82,999.53,2023.56,3053.43,2840.02,3251.18,600.10,580.17,37.84,0000 0000 0000 0000 000000
2017-05-25 06:19:40,0.03,0.93,0.00,26.04,29.05,31.79,14.02,47.72,999.53,2023.32,3052.09,2839.13,3250.14,599.77,579.87,37.89,0000 0000 0000 0000 000000
2017-05-25 06:24:42,0.08,0.93,0.00,26.03,29.07,31.78,14.06,47.75,999.53,2023.26,3050.89,2838.46,3249.34,600.09,580.14,37.94,0000 0000 0000 0000 000000
2017-05-25 06:29:43,0.07,0.94,0.00,26.05,29.07,31.81,14.02,47.65,999.53,2023.10,3048.29,2837.01,3247.37,599.99,580.02,37.99,0000 0000 0000 0000 000000
2017-05-25 06:34:44,0.02,0.94,0.00,26.05,29.09,31.81,14.03,47.78,999.53,2023.04,3047.83,2836.40,3246.99,599.82,579.84,38.04,0000 0000 0000 0000 000000
2017-05-25 06:39:45,0.03,0.94,0.00,26.05,29.10,31.82,14.01,47.63,999.53,2023.03,3047.05,2836.01,3246.36,599.88,579.81,38.09,0000 0000 0000 0000 000000
2017-05-25 06:44:47,0.03,0.94,0.00,26.05,29.10,31.82,14.12,47.84,999.53,2023.01,3046.29,2835.66,3245.99,600.14,580.23,38.14,0000 0000 0000 0000 000000
2017-05-25 06:49:48,0.03,0.94,0.00,26.05,29.12,31.85,14.06,47.71,999.53,2023.00,3045.82,2835.04,3245.37,599.91,580.05,38.19,0000 0000 0000 0000 000000
2017-05-25 06:54:49,0.01,0.94,0.00,26.05,29.12,31.85,14.12,47.80,999.53,2023.00,3045.05,2834.97,3245.00,600.31,580.35,38.24,0000 0000 0000 0000 000000
2017-05-25 06:59:50,0.02,0.94,0.00,26.05,29.12,31.85,14.05,47.74,999.53,2023.00,3044.85,2834.64,3244.80,599.98,580.04,38.29,0000 0000 0000 0000 000000
2017-05-25 07:04:52,0.04,0.95,0.00,26.05,29.13,31.85,14.07,47.60,999.53,2023.00,3044.09,2834.08,3244.11,599.82,579.88,38.34,0000 0000 0000 0000 000000
2017-05-25 07:09:53,0.00,0.95,0.00,26.04,29.15,31.86,14.07,47.42,999.53,2023.00,3043.84,2834.00,3243.99,600.33,580.38,38.39,0000 0000 0000 0000 000000
2017-05-25 07:14:54,0.03,0.95,0.00,26.03,29.15,31.88,14.08,47.61,999.53,2023.00,3043.10,2833.82,3243.51,599.75,579.91,38.44,0000 0000 0000 0000 000000
2017-05-25 07:19:56,0.03,0.95,0.00,26.05,29.15,31.88,14.02,47.68,999.54,2023.00,3042.72,2833.12,3243.01,599.46,579.57,38.50,0000 0000 0000 0000 000000
2017-05-25 07:24:57,0.01,0.95,0.00,26.03,29.15,31.86,14.05,47.73,999.54,2023.00,3042.02,2832.99,3242.71,600.17,580.28,38.55,0000 0000 0000 0000 000000
2017-05-25 07:29:58,0.04,0.95,0.00,26.02,29.17,31.87,14.11,47.65,999.54,2022.99,3041.18,2832.48,3242.01,600.19,580.28,38.60,0000 0000 0000 0000 000000
2017-05-25 07:34:59,0.03,0.95,0.00,26.02,29.17,31.88,14.08,47.68,999.54,2022.99,3040.44,2832.01,3241.34,600.04,580.15,38.65,0000 0000 0000 0000 000000
2017-05-25 07:40:00,0.03,0.96,0.00,26.02,29.17,31.89,14.12,47.72,999.54,2022.99,3039.77,2831.70,3240.97,600.32,580.31,38.70,0000 0000 0000 0000 000000
2017-05-25 07:45:01,0.03,0.96,0.00,26.02,29.17,31.90,14.12,47.67,999.69,2022.99,3039.03,2831.07,3240.29,599.94,580.15,38.75,0000 0000 0000 0000 000000
2017-05-25 07:50:03,0.01,0.96,0.00,26.01,29.17,31.89,14.06,47.63,999.99,2022.99,3038.44,2831.00,3240.00,600.04,580.37,38.80,0000 0000 0000 0000 000000
2017-05-25 07:55:04,0.02,0.96,0.00,26.00,29.17,31.88,14.07,47.73,1000.01,2022.98,3037.94,2830.70,3239.55,599.92,580.33,38.85,0000 0000 0000 0000 000000
2017-05-25 08:00:05,0.03,0.96,0.00,26.01,29.18,31.90,14.09,47.79,1000.01,2022.99,3037.13,2830.06,3239.01,599.91,580.34,38.90,0000 0000 0000 0000 000000
2017-05-25 08:05:06,0.01,0.96,0.00,26.01,29.19,31.88,14.10,47.75,1000.01,2022.98,3036.76,2829.99,3238.72,600.31,580.75,38.95,0000 0000 0000 0000 000000
2017-05-25 08:10:08,0.03,0.96,0.00,26.00,29.19,31.88,14.04,47.75,1000.01,2022.96,3036.03,2829.60,3238.03,599.55,580.05,39.00,0000 0000 0000 0000 000000
2017-05-25 08:15:09,0.03,0.97,0.00,26.01,29.19,31.90,14.12,47.73,1000.03,2022.96,3035.52,2829.04,3237.82,600.08,580.49,39.05,0000 0000 0000 0000 000000
2017-05-25 08:20:10,0.01,0.97,0.00,26.01,29.20,31.90,14.06,47.56,1000.14,2022.94,3034.94,2828.98,3237.05,599.94,580.32,39.10,0000 0000 0000 0000 000000
2017-05-25 08:25:12,0.03,0.97,0.00,26.02,29.20,31.88,14.09,47.83,1000.16,2022.97,3034.19,2828.62,3236.97,599.78,580.21,39.15,0000 0000 0000 0000 000000
2017-05-25 08:30:13,0.03,0.97,0.00,26.00,29.20,31.91,14.01,47.77,1000.24,2022.96,3033.83,2828.04,3236.31,600.05,580.65,39.20,0000 0000 0000 0000 000000
2017-05-25 08:35:14,0.01,0.97,0.00,25.99,29.20,31.92,14.06,47.81,1000.41,2022.95,3033.04,2827.99,3235.98,599.80,580.42,39.25,0000 0000 0000 0000 000000
2017-05-25 08:40:15,0.04,0.97,0.00,26.00,29.20,31.90,14.12,47.81,1000.50,2022.95,3032.48,2827.53,3235.41,600.26,580.95,39.30,0000 0000 0000 0000 000000
2017-05-25 08:45:17,0.01,0.97,0.00,25.99,29.20,31.90,14.05,47.88,1000.48,2022.96,3032.00,2827.02,3235.00,599.81,580.56,39.35,0000 0000 0000 0000 000000
2017-05-25 08:50:18,0.02,0.98,0.00,25.99,29.20,31.90,14.11,47.85,1000.50,2022.97,3031.36,2826.99,3234.72,600.21,580.91,39.40,0000 0000 0000 0000 000000
2017-05-25 08:55:19,0.02,0.98,0.00,25.98,29.20,31.91,14.07,47.83,1000.50,2022.97,3031.00,2826.72,3234.07,599.88,580.63,39.46,0000 0000 0000 0000 000000
2017-05-25 09:00:21,0.03,0.98,0.00,25.99,29.20,31.90,14.11,47.84,1000.51,2022.98,3030.33,2826.09,3233.98,600.11,580.85,39.51,0000 0000 0000 0000 000000
2017-05-25 09:05:22,0.01,0.98,0.00,25.99,29.20,31.92,14.08,47.86,1000.54,2022.98,3029.98,2826.00,3233.50,599.96,580.85,39.56,0000 0000 0000 0000 000000
2017-05-25 09:10:23,0.02,0.98,0.00,25.98,29.20,31.89,14.08,47.74,1000.60,2022.96,3029.31,2825.90,3233.01,600.25,581.20,39.61,0000 0000 0000 0000 000000
2017-05-25 09:15:25,0.02,0.98,0.00,25.97,29.20,31.90,14.14,47.84,1000.67,2022.96,3029.00,2825.31,3232.92,600.04,580.90,39.66,0000 0000 0000 0000 000000
2017-05-25 09:20:26,0.03,0.98,0.00,25.96,29.20,31.89,14.10,47.86,1000.86,2022.97,3028.49,2825.02,3232.25,599.91,580.89,39.71,0000 0000 0000 0000 000000
2017-05-25 09:25:27,0.00,0.98,0.00,25.95,29.20,31.90,14.10,47.81,1000.96,2022.99,3028.00,2824.98,3232.00,599.94,580.98,39.76,0000 0000 0000 0000 000000
2017-05-25 09:30:28,0.02,0.98,0.00,25.95,29.20,31.89,14.04,47.75,1000.99,2022.96,3027.69,2824.85,3231.82,599.86,580.92,39.81,0000 0000 0000 0000 000000
2017-05-25 09:35:30,0.04,0.99,0.00,25.94,29.20,31.90,14.09,47.82,1000.99,2022.97,3027.04,2824.18,3231.08,599.90,581.09,39.86,0000 0000 0000 0000 000000
2017-05-25 09:40:31,0.00,0.99,0.00,25.92,29.20,31.88,14.03,47.72,1001.01,2022.97,3026.93,2824.00,3230.99,599.71,580.97,39.91,0000 0000 0000 0000 000000
2017-05-25 09:45:32,0.02,0.99,0.00,25.90,29.19,31.89,14.09,47.83,1001.01,2022.98,3026.15,2824.00,3230.71,599.82,581.19,39.96,0000 0000 0000 0000 000000
2017-05-25 09:50:33,0.01,0.99,0.00,25.90,29.18,31.91,14.13,47.74,1001.00,2022.98,3025.99,2823.91,3230.18,600.12,581.35,40.01,0000 0000 0000 0000 000000
2017-05-25 09:55:35,0.03,0.99,0.00,25.89,29.17,31.91,14.08,47.63,1000.99,2022.97,3025.40,2823.22,3229.99,599.86,581.08,40.06,0000 0000 0000 0000 000000
2017-05-25 10:00:36,0.01,0.99,0.00,25.87,29.17,31.87,14.11,47.73,1001.01,2022.97,3025.00,2823.00,3229.59,600.10,581.32,40.11,0000 0000 0000 0000 000000
2017-05-25 10:05:37,0.02,0.99,0.00,25.85,29.17,31.89,14.05,47.48,1001.12,2022.97,3024.61,2822.99,3229.04,600.15,581.38,40.16,0000 0000 0000 0000 000000
2017-05-25 10:10:38,0.01,0.99,0.00,25.83,29.17,31.88,14.12,47.63,1001.40,2022.98,3024.03,2822.76,3228.99,599.85,581.40,40.21,0000 0000 0000 0000 000000
2017-05-25 10:15:39,0.03,0.99,0.00,25.83,29.17,31.87,14.09,47.69,1001.48,2022.98,3023.84,2822.10,3228.55,599.86,581.50,40.26,0000 0000 0000 0000 000000
2017-05-25 10:20:41,0.02,1.00,0.00,25.82,29.15,31.88,14.12,47.51,1001.48,2022.99,3023.09,2822.01,3228.03,599.95,581.57,40.31,0000 0000 0000 0000 000000
2017-05-25 10:25:42,0.00,1.00,0.00,25.80,29.15,31.86,14.11,47.62,1001.48,2022.99,3022.91,2821.98,3227.99,599.93,581.66,40.37,0000 0000 0000 0000 000000
2017-05-25 10:30:43,0.03,1.00,0.00,25.78,29.15,31.81,14.14,47.60,1001.48,2022.99,3022.15,2821.75,3227.53,600.27,581.86,40.42,0000 0000 0000 0000 000000
2017-05-25 10:35:44,0.02,1.00,0.00,25.77,29.15,31.82,14.17,47.51,1001.49,2022.99,3021.95,2821.10,3227.02,600.10,581.81,40.47,0000 0000 0000 0000 000000
2017-05-25 10:40:45,0.01,1.00,0.00,25.77,29.13,31.85,14.19,47.71,1001.55,2022.99,3021.34,2821.00,3226.99,600.31,582.04,40.52,0000 0000 0000 0000 000000
2017-05-25 10:45:47,0.01,1.00,0.00,25.77,29.12,31.86,14.14,47.50,1001.66,2022.99,3021.01,2821.00,3226.63,600.02,581.82,40.57,0000 0000 0000 0000 000000
2017-05-25 10:50:48,0.02,1.00,0.00,25.75,29.12,31.87,14.21,47.60,1001.90,2022.99,3020.64,2820.80,3226.04,600.15,582.13,40.62,0000 0000 0000 0000 000000
2017-05-25 10:55:49,0.02,1.00,0.00,25.75,29.12,31.84,14.10,47.51,1001.95,2022.99,3020.02,2820.16,3225.98,599.95,581.98,40.67,0000 0000 0000 0000 000000
2017-05-25 11:00:50,0.01,1.00,0.00,25.75,29.11,31.83,14.13,47.53,1001.96,2022.99,3019.91,2820.01,3225.46,600.03,582.05,40.72,0000 0000 0000 0000 000000
2017-05-25 11:05:51,0.02,1.01,0.00,25.75,29.10,31.81,14.20,47.62,1001.97,2023.00,3019.14,2819.99,3225.02,599.82,581.83,40.77,0000 0000 0000 0000 000000
2017-05-25 11:10:53,0.00,1.01,0.00,25.74,29.10,31.82,14.17,47.48,1002.02,2023.00,3018.98,2819.91,3225.00,599.95,581.87,40.82,0000 0000 0000 0000 000000
2017-05-25 11:15:54,0.03,1.01,0.00,25.74,29.09,31.82,14.15,47.58,1002.00,2023.00,3018.51,2819.36,3224.76,600.25,582.29,40.87,0000 0000 0000 0000 000000
2017-05-25 11:20:56,0.01,1.01,0.00,25.74,29.07,31.78,14.12,47.49,1002.00,2023.00,3018.03,2819.04,3224.11,599.91,582.10,40.92,0000 0000 0000 0000 000000
2017-05-25 11:25:57,0.01,1.01,0.00,25.72,29.07,31.78,14.11,47.62,1002.15,2023.02,3017.87,2819.00,3224.00,599.48,581.57,40.97,0000 0000 0000 0000 000000
2017-05-25 11:30:58,0.01,1.01,0.00,25.72,29.07,31.78,14.16,47.52,1002.28,2023.00,3017.17,2818.98,3223.90,600.23,582.50,41.02,0000 0000 0000 0000 000000
2017-05-25 11:36:00,0.02,1.01,0.00,25.72,29.06,31.77,14.07,47.54,1002.24,2023.02,3017.00,2818.78,3223.30,599.86,582.08,41.07,0000 0000 0000 0000 000000
2017-05-25 11:41:01,0.02,1.01,0.00,25.72,29.05,31.76,14.15,47.48,1002.07,2023.03,3016.75,2818.24,3223.02,600.24,582.38,41.12,0000 0000 0000 0000 000000
2017-05-25 11:46:02,0.01,1.01,0.00,25.72,29.05,31.76,14.10,47.49,1002.03,2023.05,3016.07,2818.00,3222.99,599.74,581.93,41.17,0000 0000 0000 0000 000000
2017-05-25 11:51:04,0.01,1.01,0.00,25.70,29.04,31.75,14.21,47.70,1002.00,2023.11,3015.99,2818.00,3222.75,600.09,582.24,41.22,0000 0000 0000 0000 000000
2017-05-25 11:56:05,0.02,1.01,0.00,25.70,29.03,31.74,14.09,47.64,1001.99,2023.17,3015.75,2817.99,3222.12,599.76,581.93,41.28,0000 0000 0000 0000 000000
2017-05-25 12:01:06,0.01,1.02,0.00,25.69,29.02,31.72,14.10,47.52,1002.19,2023.25,3015.12,2817.95,3222.01,599.69,582.04,41.33,0000 0000 0000 0000 000000
2017-05-25 12:06:08,0.01,1.02,0.00,25.69,29.02,31.72,14.10,47.48,1002.24,2023.32,3015.00,2817.68,3222.00,599.27,581.67,41.38,0000 0000 0000 0000 000000
2017-05-25 12:11:09,0.01,1.02,0.00,25.67,29.02,31.70,14.18,47.64,1002.05,2023.23,3014.98,2817.14,3221.97,600.11,582.23,41.43,0000 0000 0000 0000 000000
2017-05-25 12:16:10,0.01,1.02,0.00,25.68,29.00,31.71,14.21,47.58,1002.02,2023.26,3014.93,2817.06,3221.88,600.14,582.34,41.48,0000 0000 0000 0000 000000
2017-05-25 12:21:12,0.00,1.02,0.00,25.67,29.00,31.69,14.13,47.53,1002.04,2023.29,3014.69,2817.03,3221.70,600.13,582.41,41.53,0000 0000 0000 0000 000000
2017-05-25 12:26:13,0.03,1.02,0.00,25.66,29.00,31.69,14.13,47.56,1002.10,2023.39,3014.13,2817.00,3221.20,599.84,582.29,41.58,0000 0000 0000 0000 000000
2017-05-25 12:31:14,0.00,1.02,0.00,25.65,28.99,31.67,14.07,47.54,1002.19,2023.44,3014.02,2817.00,3221.06,599.34,581.68,41.63,0000 0000 0000 0000 000000
2017-05-25 12:36:15,0.01,1.02,0.00,25.64,28.97,31.71,14.11,47.50,1002.34,2023.55,3014.00,2817.00,3221.00,599.84,582.35,41.68,0000 0000 0000 0000 000000
2017-05-25 12:41:16,0.02,1.02,0.00,25.63,28.97,31.68,14.18,47.61,1002.35,2023.75,3013.98,2816.99,3221.00,600.05,582.50,41.73,0000 0000 0000 0000 000000
2017-05-25 12:46:18,0.01,1.02,0.00,25.61,28.96,31.67,14.12,47.69,1002.44,2023.83,3013.76,2816.98,3221.00,599.91,582.51,41.78,0000 0000 0000 0000 000000
2017-05-25 12:51:19,0.02,1.02,0.00,25.61,28.95,31.68,14.09,47.63,1002.46,2023.89,3013.10,2816.91,3220.97,599.81,582.43,41.83,0000 0000 0000 0000 000000
2017-05-25 12:56:20,0.02,1.02,0.00,25.61,28.95,31.66,14.12,47.72,1002.46,2023.93,3013.00,2816.61,3220.71,600.02,582.65,41.88,0000 0000 0000 0000 000000
2017-05-25 13:01:21,0.02,1.03,0.00,25.60,28.94,31.67,14.09,47.72,1002.47,2023.96,3012.93,2816.13,3220.09,599.73,582.31,41.93,0000 0000 0000 0000 000000